Wind_Speed
45 46 46 47 47 47 48 48 48 48 49 49 49 49 50 50 50 50 50 51 51 51 51 51 51 52 52 52 53 53 53 54 54 54 55 55 56 56 57 58 60 61 63 64 65 67 68 69 69 70 71 72 73 74 75 76 76 77 78 79 80 81 82 82 83 84 85 86 87 87 88 89 89 90 91 91 92 93 93 94 95 95 95 96 96 96
46 47 47 47 47 48 48 48 49 49 49 49 49 49 49 49 50 50 50 50 50 50 50 51 51 51 51 52 52 53 53 53 54 54 55 55 56 57 58 59 61 62 64 65 66 67 68 69 70 71 72 73 74 75 76 77 78 79 80 81 82 83 84 84 85 86 87 88 89 89 90 91 91 92 93 93 94 94 95 95 95 96 96 96 96 96
47 47 48 48 48 48 49 49 49 49 49 49 49 49 49 49 49 49 49 49 49 50 50 50 50 51 51 51 52 52 53 53 54 55 55 56 57 58 59 60 62 63 64 66 67 68 69 70 71 72 73 74 75 76 77 79 80 81 82 83 84 85 85 86 87 88 89 90 91 91 92 92 93 93 94 94 94 95 95 95 95 95 95 95 95 94
48 48 49 49 49 49 49 49 49 50 50 50 50 50 49 49 49 49 49 49 49 49 50 50 50 51 51 52 52 53 53 54 55 56 57 57 58 59 60 62 63 64 65 66 67 69 70 71 72 73 74 76 77 78 79 80 81 82 84 84 85 86 87 88 89 90 91 91 92 92 93 93 94 94 94 94 94 94 94 94 94 94 93 93 92 92
49 49 49 50 50 50 50 50 50 50 50 50 50 50 50 49 49 49 49 49 50 50 50 51 51 51 52 52 53 54 54 55 56 57 58 59 60 61 62 63 64 65 66 67 68 70 71 72 73 75 76 77 78 80 81 82 83 84 85 86 87 88 89 90 91 91 92 92 93 93 93 93 93 93 93 93 93 93 92 92 92 91 91 90 89 89
50 50 50 50 50 50 51 51 51 51 51 50 50 50 50 50 50 50 50 50 50 51 51 52 52 53 53 54 54 55 56 57 58 59 60 61 62 63 64 65 66 67 68 69 70 71 73 74 75 76 78 79 80 82 83 84 85 86 87 88 89 90 90 91 91 92 92 92 92 92 92 92 92 92 91 91 90 90 89 89 88 88 87 86 86 86
50 51 51 51 51 51 51 51 51 51 51 51 51 51 50 51 51 51 51 51 52 52 52 53 53 54 55 56 56 57 58 59 60 61 62 63 64 65 66 67 68 69 70 71 72 73 75 76 77 79 80 81 82 84 85 86 87 88 89 89 90 90 91 91 91 91 91 91 91 91 90 90 89 89 88 87 87 86 86 85 85 84 84 83 83 83
51 52 52 52 52 52 52 52 52 52 52 51 51 51 51 51 52 52 52 52 53 53 53 54 55 55 56 57 58 59 60 61 62 63 64 65 66 67 68 69 70 71 72 73 75 76 77 78 80 81 82 83 85 86 87 88 88 89 90 90 90 90 90 90 90 90 89 89 88 88 87 86 86 85 85 84 83 83 82 82 82 81 81 81 81 81
52 52 52 52 52 52 52 52 52 52 52 52 52 52 52 52 53 53 53 53 54 54 55 56 56 57 58 59 60 61 62 63 64 65 67 68 69 70 71 72 73 74 74 76 77 78 79 80 82 83 84 86 87 88 89 89 90 90 91 91 91 90 90 89 88 88 87 86 85 85 84 83 83 82 82 81 81 81 80 80 80 80 79 79 79 80
53 53 53 53 53 53 52 52 52 52 52 52 52 53 53 53 54 54 54 54 55 56 56 57 58 59 60 61 62 63 64 65 66 67 69 70 71 72 73 74 75 75 76 77 78 80 81 82 84 85 86 88 89 90 91 91 91 92 91 91 90 90 89 88 87 86 85 84 83 82 82 81 81 80 80 80 80 79 79 79 78 78 78 78 78 78
53 53 53 53 53 53 53 53 53 53 52 52 53 53 54 54 55 55 55 56 56 57 58 59 60 61 62 63 64 65 66 67 68 69 70 71 73 74 74 75 76 77 78 79 80 81 83 84 86 87 88 90 91 91 92 92 92 92 91 90 89 88 87 86 85 84 83 82 82 81 81 80 80 80 79 79 79 78 78 78 77 77 77 77 76 76
53 53 53 53 53 53 53 53 53 53 53 53 54 54 55 55 56 57 57 58 58 59 59 60 61 63 64 65 66 67 68 69 70 71 72 73 74 75 76 76 77 78 79 80 82 83 85 86 87 89 90 91 92 92 93 92 92 91 90 89 88 86 85 84 83 83 82 82 81 81 80 80 80 79 79 78 78 77 77 77 76 76 75 75 74 74
54 54 54 53 53 53 53 53 54 54 54 54 55 55 56 57 57 58 58 59 60 61 61 62 63 64 66 67 68 70 70 71 72 72 73 74 75 76 77 78 79 80 81 82 83 85 86 88 89 90 91 92 92 93 92 92 91 89 88 87 85 84 84 83 82 82 81 81 81 80 80 79 79 79 78 78 77 76 76 75 75 74 73 73 72 71
54 54 54 54 54 54 54 54 54 54 55 55 56 56 57 58 58 59 60 61 62 62 63 64 65 66 67 69 70 71 72 73 73 74 74 75 76 77 78 79 80 81 82 83 85 87 88 89 90 91 92 92 92 92 91 90 88 87 86 84 84 83 82 82 81 81 81 80 80 80 79 79 78 78 77 76 76 75 74 73 73 72 71 70 69 68
54 54 54 54 54 54 54 55 55 55 56 56 57 58 58 59 60 61 62 63 63 64 65 66 67 68 69 70 72 73 74 75 75 75 76 76 77 78 80 81 82 83 84 85 87 89 90 91 92 92 93 92 91 90 89 87 86 84 83 83 82 81 81 81 80 80 80 80 79 79 78 78 77 76 76 75 74 73 72 71 71 70 68 67 65 63
55 55 54 55 55 55 55 55 56 57 57 58 59 59 60 61 62 63 63 64 65 66 67 68 69 69 70 72 73 74 76 77 77 77 77 78 78 80 81 82 83 84 85 87 88 90 92 92 93 93 92 91 89 88 86 84 83 82 82 81 81 80 80 80 80 79 79 78 78 77 77 76 75 74 74 73 72 71 70 69 68 67 65 63 61 59
55 55 55 55 55 55 56 56 57 58 59 59 60 61 62 63 64 65 65 66 67 68 69 70 71 71 72 73 74 76 77 78 79 79 79 79 80 81 83 84 85 86 87 89 90 92 93 93 93 92 90 88 87 85 83 82 81 81 80 80 80 79 79 79 78 78 77 77 76 75 75 74 73 72 71 70 69 68 67 66 65 63 61 59 57 55
56 56 56 56 56 56 57 57 58 59 60 61 62 63 64 64 65 66 67 68 69 70 71 72 73 73 74 75 76 77 79 80 81 81 81 81 81 82 84 86 87 88 89 91 92 93 93 93 92 90 88 86 84 83 81 81 80 80 79 79 78 78 78 77 77 76 75 74 74 73 72 71 70 69 68 68 67 66 64 63 61 59 57 55 54 53
57 56 56 56 57 57 58 59 60 61 62 63 64 64 65 66 67 68 69 70 71 72 73 74 74 75 76 77 78 79 81 82 82 83 83 83 83 84 86 88 89 90 91 92 93 94 93 92 90 88 85 84 82 81 80 79 79 78 78 77 77 76 76 75 74 73 72 71 70 69 69 68 67 66 65 64 63 62 61 59 57 55 54 53 52 52
57 57 57 57 58 58 59 60 61 62 64 65 65 66 67 68 69 69 70 71 72 73 74 75 76 77 78 79 80 81 83 84 85 85 85 85 85 86 88 90 91 92 93 94 94 93 92 90 88 85 83 81 80 79 78 78 77 77 76 76 75 74 73 72 71 70 69 68 67 66 65 64 64 63 62 61 60 58 57 55 54 53 52 52 52 52
57 58 58 58 59 60 61 62 63 64 65 66 67 68 69 70 70 71 72 73 74 75 76 77 78 79 80 81 82 83 85 86 87 88 88 87 87 88 90 92 93 94 94 94 94 92 90 87 85 83 81 79 78 78 77 76 76 75 74 73 72 71 70 68 67 66 65 64 63 63 62 61 60 59 58 57 56 55 54 53 52 52 52 52 52 52
58 58 59 59 60 61 62 63 64 66 67 68 69 70 71 71 72 73 74 75 76 77 78 78 79 80 81 82 83 85 87 88 89 90 91 90 90 91 92 94 95 95 95 94 93 91 88 85 82 80 79 77 76 76 75 74 73 72 71 70 69 67 66 64 63 62 61 61 60 59 59 58 57 56 55 54 53 53 52 52 52 52 52 52 53 53
58 58 59 60 61 62 63 64 66 67 68 70 71 72 73 73 74 75 76 77 77 78 79 80 80 81 82 83 85 87 88 90 92 93 93 93 93 93 94 95 96 96 95 93 91 88 85 83 80 78 77 75 74 73 72 71 70 69 67 66 64 63 61 60 59 59 58 58 57 56 55 55 54 53 52 52 52 52 52 52 52 52 52 53 53 53
58 59 60 61 62 63 64 65 67 68 70 71 72 73 74 75 75 76 77 78 79 80 81 81 82 83 84 85 86 88 90 92 94 95 96 96 96 96 96 97 97 96 95 92 89 86 83 80 78 76 74 73 71 70 68 67 66 65 63 61 60 58 57 57 56 56 55 54 54 53 53 52 52 51 51 51 51 52 52 52 52 52 52 52 53 52
58 59 60 61 62 64 65 67 68 70 71 72 73 74 75 76 77 78 79 80 80 81 82 83 84 84 85 86 88 89 91 94 95 97 98 98 98 98 98 98 97 95 93 91 87 83 80 78 75 73 71 69 67 66 64 63 62 60 58 57 56 55 54 53 53 53 52 52 51 51 51 51 51 51 51 51 51 51 52 52 52 52 52 52 52 52
59 60 61 63 64 65 67 68 70 71 73 74 75 76 77 78 79 80 80 81 82 83 84 85 85 86 87 88 89 91 93 95 97 98 99 99 99 99 99 98 97 94 92 88 85 81 78 75 72 70 67 65 63 61 59 58 57 55 54 53 52 51 51 51 50 50 50 50 50 50 50 50 50 50 50 51 51 51 51 52 52 52 52 52 52 52
61 62 63 64 66 67 68 70 72 73 74 76 77 78 78 79 80 81 82 83 83 84 85 86 87 88 89 90 90 92 94 96 98 100 100 100 100 99 99 98 96 93 89 86 82 78 74 72 69 66 63 60 58 56 55 53 52 51 50 49 49 49 48 48 48 48 48 48 48 49 49 49 49 49 50 50 50 51 51 51 52 52 52 52 52 52
62 63 65 66 67 69 70 72 73 75 76 77 78 79 80 81 81 82 83 84 85 86 87 88 89 90 91 91 92 93 95 97 99 100 101 101 100 99 98 96 94 91 87 83 79 75 71 68 65 61 58 55 53 51 50 49 48 48 47 47 46 46 46 46 46 47 47 47 47 47 48 48 48 49 49 50 50 51 51 51 51 52 52 52 52 52
64 65 66 67 68 69 71 73 74 76 77 78 79 80 81 81 82 83 84 85 86 87 88 90 91 91 92 93 94 95 96 98 99 101 101 100 100 99 97 94 91 88 83 79 76 72 67 63 59 56 52 50 48 47 46 46 45 45 44 44 44 45 45 45 45 45 45 46 46 46 47 47 48 48 49 49 50 50 51 51 52 52 52 52 52 53
65 66 67 68 69 70 72 73 75 77 78 79 80 81 82 82 83 84 85 86 87 88 90 91 92 93 94 95 96 97 98 99 100 101 101 99 98 97 95 91 88 84 80 76 72 67 63 58 53 50 47 45 44 44 43 43 42 42 42 42 43 43 43 43 43 44 44 44 45 45 46 47 47 48 48 49 50 50 51 51 52 52 52 52 52 53
66 67 68 69 70 71 73 74 76 78 79 80 81 81 82 83 84 85 86 87 88 89 91 92 93 94 95 96 97 98 98 99 100 101 100 98 96 95 91 87 83 80 76 71 67 63 58 52 48 44 42 41 41 41 41 41 40 40 40 40 41 41 41 41 42 42 43 43 44 45 45 46 47 47 48 49 49 50 51 51 52 52 52 52 52 53
67 68 69 70 71 72 74 76 77 79 80 81 81 82 83 84 85 86 87 88 89 90 91 93 94 95 97 98 98 98 99 99 100 100 99 96 94 92 88 83 78 75 71 67 62 57 53 47 43 40 38 37 38 38 39 39 39 39 39 39 39 39 39 40 40 41 42 42 43 44 45 45 46 47 48 48 49 50 50 51 51 52 52 52 52 52
68 69 70 71 73 74 76 77 79 80 81 81 82 83 83 84 85 87 88 89 90 91 92 93 95 96 97 98 99 99 99 99 99 98 97 94 91 87 84 78 74 69 66 61 57 52 47 43 39 36 34 34 35 36 37 37 37 37 37 37 37 38 38 38 39 39 40 41 42 43 43 44 45 46 47 47 48 49 49 50 51 51 52 52 52 52
69 70 71 73 74 76 77 79 80 81 81 82 83 83 84 85 86 87 89 90 91 92 93 94 95 96 98 99 99 99 98 98 97 96 94 91 87 83 78 73 68 64 59 55 50 46 42 39 36 33 32 32 33 34 35 35 35 35 35 35 36 36 36 37 37 38 39 39 40 41 42 42 43 44 45 46 47 47 48 49 50 51 51 52 52 52
71 72 73 74 75 77 78 80 81 81 82 83 83 84 85 86 87 88 89 91 92 93 94 95 96 97 98 98 98 98 97 96 95 93 90 86 82 78 73 68 63 58 53 48 44 40 37 35 34 32 31 30 31 31 32 32 33 33 33 34 34 34 35 35 35 36 37 37 38 39 39 40 40 41 42 42 43 44 45 46 48 49 50 51 52 52
72 73 74 75 76 78 79 80 81 82 82 83 84 85 85 87 88 89 90 91 92 93 94 95 96 97 98 98 98 96 95 94 92 89 86 81 77 72 67 62 57 52 47 42 39 36 34 33 32 30 30 29 29 29 29 30 30 31 32 32 32 33 33 34 34 34 35 35 35 36 36 37 37 38 39 39 40 41 42 43 44 46 47 48 49 51
72 74 75 76 77 79 80 81 81 82 83 83 84 85 86 87 89 90 91 92 92 93 94 95 96 97 98 98 97 96 94 91 88 85 80 76 72 67 61 56 51 46 41 38 35 33 32 31 30 29 28 27 27 26 27 27 28 28 29 30 31 31 32 32 33 33 33 34 34 34 35 36 37 38 38 39 40 41 41 42 43 44 45 46 47 48
73 74 76 77 78 79 80 81 82 82 83 84 85 86 87 88 89 90 91 91 92 93 94 95 95 96 97 96 96 94 91 88 84 79 75 71 66 61 56 50 45 40 37 35 33 32 30 29 28 27 26 25 25 25 25 25 26 26 27 28 29 30 31 31 32 32 33 33 34 35 36 37 38 39 40 41 41 42 42 43 43 44 44 45 46 47
74 75 76 78 78 79 80 81 82 83 84 84 85 87 88 89 89 90 90 91 92 93 93 94 95 95 95 95 93 91 87 83 78 74 69 65 60 55 49 44 39 36 33 32 31 31 30 28 27 25 24 23 23 23 24 24 25 25 26 27 28 30 31 31 32 33 33 34 35 36 37 38 39 41 41 42 43 43 43 44 44 44 44 45 45 45
75 76 77 78 79 80 80 81 82 83 84 85 86 87 88 89 89 90 90 91 92 92 93 94 94 94 94 92 90 86 82 78 73 68 64 59 54 48 43 38 35 33 32 31 30 30 28 27 26 24 23 22 21 22 22 23 24 25 26 27 28 29 31 32 32 33 34 35 35 36 38 39 40 42 43 44 44 45 45 45 45 45 45 44 44 44
75 76 77 78 79 80 81 82 83 84 85 86 86 87 88 88 89 89 90 91 92 92 93 93 94 94 92 90 86 81 77 72 67 63 58 53 48 42 37 33 31 31 30 30 29 28 27 26 25 24 23 22 21 21 22 23 25 26 27 28 28 29 31 32 33 34 34 35 36 37 38 40 41 42 44 45 46 46 47 46 46 46 46 45 45 44
76 76 77 78 79 80 81 82 83 84 85 86 86 86 87 88 88 89 90 91 91 92 93 93 92 91 89 86 82 77 72 66 61 57 52 47 42 37 33 31 30 30 29 29 28 27 26 25 25 24 23 22 21 22 22 24 25 27 28 29 30 30 31 32 33 34 35 36 37 38 39 40 42 43 45 46 47 48 48 48 48 48 48 47 46 46
76 77 78 79 80 81 82 83 84 84 85 85 85 86 87 88 89 89 90 91 91 91 92 92 90 88 85 80 76 71 66 61 56 51 46 41 36 33 31 30 29 29 28 28 27 26 25 25 24 24 23 23 22 22 23 24 26 27 29 30 31 31 32 32 33 34 35 37 38 39 40 41 43 44 45 47 48 49 50 50 50 50 50 49 49 48
77 78 79 79 80 81 82 83 83 84 84 84 85 86 87 88 89 90 90 91 91 91 91 90 88 85 81 76 71 65 60 55 50 45 40 36 32 30 29 29 29 28 27 27 26 25 25 24 24 24 24 24 23 24 24 25 26 28 29 31 32 33 33 33 34 35 36 37 38 39 40 42 43 44 46 47 49 50 51 51 51 52 52 51 51 50
78 79 80 80 81 82 82 83 83 83 84 85 86 87 88 89 90 90 90 90 91 91 90 88 85 81 76 71 66 60 54 49 44 39 35 32 30 29 29 29 28 27 26 25 25 25 24 24 24 24 24 24 25 25 25 26 27 28 30 31 32 33 34 34 35 36 36 37 38 40 41 42 43 44 45 47 49 50 51 52 52 52 52 52 52 51
79 80 80 81 82 82 82 82 83 83 84 85 86 87 88 89 90 90 90 90 90 89 88 85 81 76 71 66 60 54 48 43 39 35 32 30 29 28 28 28 27 26 25 24 24 24 24 24 25 25 25 25 25 26 26 27 28 29 30 31 32 33 34 35 36 37 37 38 39 40 41 42 43 44 45 47 49 50 51 52 52 53 52 52 52 51
80 80 81 81 82 82 82 83 83 84 85 86 87 88 89 89 90 90 91 90 89 87 85 81 77 71 66 61 55 48 42 37 34 32 30 29 28 28 27 27 26 25 24 24 24 24 24 25 26 26 26 26 26 26 27 28 28 29 30 31 32 33 34 35 36 37 38 39 39 40 41 42 43 44 45 47 48 50 51 52 52 52 52 52 51 50
80 81 81 82 82 82 83 83 84 85 86 87 88 89 89 90 90 90 90 89 87 84 80 76 71 66 61 55 49 43 37 33 31 29 29 28 28 27 27 26 25 24 23 23 23 24 24 26 27 27 27 27 26 26 27 28 29 30 30 31 32 33 34 34 36 37 38 39 40 40 41 42 43 44 45 47 48 49 50 51 52 52 51 51 50 49
81 81 82 82 83 83 84 84 85 86 87 88 88 89 90 91 91 90 89 87 84 80 75 70 65 60 55 49 43 37 33 30 29 28 28 27 27 26 26 25 24 23 23 23 23 24 25 26 28 28 28 28 28 27 27 28 28 29 30 31 32 32 33 34 35 36 38 39 40 41 42 43 44 45 46 47 49 49 50 50 50 50 50 49 48 48
81 82 83 83 83 84 85 86 87 87 88 88 88 89 90 91 91 90 87 83 79 74 69 65 60 54 49 43 37 33 30 28 27 27 27 26 26 25 25 24 23 23 22 22 22 23 25 26 28 29 29 29 29 29 28 28 28 29 30 31 31 32 33 34 35 36 37 39 40 41 42 43 44 45 47 48 49 50 50 50 49 49 48 47 46 45
82 83 83 84 84 85 86 87 87 88 88 88 89 90 90 90 89 87 83 78 73 68 64 59 54 48 42 37 33 30 28 27 27 26 26 25 25 24 24 23 22 22 22 22 22 23 25 26 28 29 30 30 30 30 30 29 29 29 29 30 31 32 33 34 35 36 37 39 40 41 42 43 45 46 47 49 50 50 50 49 49 48 46 45 44 43
Wind_Direction
291 291 291 292 292 291 291 291 290 290 290 289 289 289 288 288 288 287 287 287 287 286 286 286 285 285 285 285 285 285 285 285 286 286 286 287 287 288 289 290 291 291 292 292 293 293 294 294 294 294 295 295 295 295 295 295 295 294 295 294 295 295 295 295 295 294 294 294 294 294 294 293 293 293 292 292 292 291 291 290 290 289 289 288 288 287
292 292 292 292 292 292 291 291 291 290 290 290 289 289 288 288 288 287 287 287 286 286 286 286 285 285 285 285 285 285 285 286 286 286 287 288 288 289 290 291 292 292 293 294 294 294 295 295 295 295 295 295 295 295 295 295 295 295 295 295 295 295 295 295 296 295 295 295 295 295 294 294 294 293 293 292 292 291 291 290 290 289 288 288 287 286
293 293 293 293 293 292 292 292 291 291 290 290 289 289 288 288 287 287 287 286 286 286 285 285 285 285 285 285 285 285 285 286 286 287 287 288 289 290 291 291 292 293 293 294 294 295 295 295 295 295 295 295 296 296 296 296 296 296 296 296 296 296 297 296 297 296 296 296 296 295 295 295 294 294 293 292 292 291 290 290 289 288 287 287 286 285
294 294 294 294 293 293 292 292 292 291 291 290 290 289 289 288 287 287 286 286 286 285 285 285 285 285 284 285 285 285 286 286 287 287 288 289 289 290 291 291 292 293 293 294 294 295 295 295 296 296 296 296 296 297 297 297 297 297 297 297 297 298 298 298 297 297 297 297 296 296 295 295 294 293 293 292 291 290 290 289 288 287 286 286 285 284
296 295 295 295 294 294 293 293 292 292 291 291 290 290 289 288 288 287 287 286 286 285 285 285 285 285 285 285 285 285 286 286 287 288 288 289 289 290 291 291 292 292 293 294 294 295 295 296 296 297 297 297 298 298 298 298 299 299 299 299 299 299 299 298 298 298 297 297 296 296 295 294 294 293 292 291 290 290 289 288 287 286 285 285 284 283
297 296 296 296 295 295 294 294 293 292 292 291 291 290 290 289 288 287 287 286 286 285 285 285 285 285 285 285 286 286 286 287 287 288 288 289 289 290 291 291 292 293 293 294 295 296 296 297 297 298 298 299 299 299 300 300 300 300 300 300 300 300 299 299 299 298 298 297 296 295 295 294 293 292 291 290 289 289 288 287 286 285 285 284 284 283
298 297 297 296 296 295 295 294 294 293 292 292 291 291 290 289 288 288 287 287 286 286 286 286 286 286 286 286 286 287 287 288 288 289 289 290 290 291 292 292 293 294 294 295 296 296 297 298 298 299 299 300 300 301 301 301 301 301 301 301 301 300 300 299 299 298 297 296 296 295 294 293 292 291 290 289 289 288 287 286 286 285 285 284 284 283
299 298 298 297 297 296 296 295 294 294 293 293 292 291 290 289 289 288 288 288 287 287 286 286 286 287 287 287 288 288 288 289 289 290 291 291 292 292 293 294 294 295 296 296 297 297 298 298 299 300 300 301 301 302 302 302 302 302 302 302 301 301 300 299 298 297 296 296 295 294 293 292 291 290 290 289 288 287 287 286 286 285 285 284 284 284
301 300 299 298 298 297 296 295 295 294 294 293 292 291 291 290 289 289 288 288 288 288 288 288 288 288 288 288 289 290 290 291 291 292 292 293 294 294 295 295 296 296 296 297 297 298 298 299 300 300 301 301 302 302 302 303 303 302 302 302 301 300 299 298 298 297 296 295 294 293 292 291 291 290 289 289 288 288 287 287 286 286 285 285 285 284
302 301 300 299 298 297 297 296 295 294 294 293 293 292 291 291 290 289 289 288 288 289 289 289 289 289 290 290 291 291 292 293 293 294 294 295 295 296 296 296 296 297 297 297 298 298 299 299 300 301 301 302 302 302 303 303 303 302 302 301 300 300 299 298 297 296 295 294 293 292 292 291 291 290 290 289 289 288 288 287 287 286 286 285 285 285
302 301 300 300 299 298 297 296 296 295 294 294 293 292 292 291 291 291 290 290 290 290 290 290 291 292 292 292 293 293 294 294 295 295 295 296 296 296 297 297 297 297 298 298 298 299 300 300 301 301 302 302 303 303 303 303 303 302 301 301 300 299 298 297 296 295 294 293 293 292 292 291 291 290 290 289 289 288 288 288 287 287 286 286 285 285
303 302 301 300 299 298 297 297 296 295 295 294 294 293 292 292 292 292 292 292 292 292 292 292 293 293 294 295 295 295 295 295 296 296 296 297 297 297 297 297 297 298 298 299 299 300 301 301 302 302 303 303 303 303 303 303 302 302 301 300 299 298 297 296 295 294 294 293 293 292 292 291 291 291 290 290 289 289 288 288 287 287 286 286 285 285
303 302 301 300 299 298 297 297 296 296 295 295 295 294 294 294 294 294 294 293 294 294 294 294 294 295 295 296 296 296 297 297 297 297 297 297 297 297 298 298 298 298 299 300 300 301 302 302 303 303 304 304 304 304 303 303 302 301 300 298 297 296 296 295 294 294 293 293 292 292 292 291 291 290 290 290 289 289 288 288 287 287 286 286 285 285
302 301 300 299 299 298 298 297 297 297 296 296 296 296 295 295 295 295 295 295 295 295 295 296 296 297 297 297 298 297 297 297 297 297 298 298 298 298 298 299 299 299 300 301 301 302 303 303 304 304 305 305 304 304 303 302 301 300 298 297 296 295 295 294 294 293 293 292 292 292 291 291 291 290 290 289 289 288 288 287 287 287 286 286 286 285
302 301 300 299 298 298 298 298 298 297 297 297 297 297 296 296 296 296 296 296 296 296 297 297 297 297 298 298 298 298 298 298 298 298 298 298 299 299 299 300 300 300 301 302 303 303 304 305 305 305 305 305 304 303 302 301 299 298 297 296 295 295 294 294 293 293 293 292 292 292 291 291 290 290 289 289 288 288 288 287 287 286 286 286 285 285
301 300 299 299 298 298 298 298 298 298 298 298 298 298 298 298 298 298 298 298 297 297 298 298 298 298 298 298 299 299 299 299 299 299 299 299 299 300 301 301 301 302 302 303 304 305 305 306 306 306 306 305 304 302 301 300 298 297 296 295 295 294 294 293 293 293 292 292 292 291 291 290 290 289 289 288 288 288 287 287 287 286 286 286 285 284
301 300 299 298 298 298 298 299 299 299 299 299 299 299 299 299 299 299 299 299 299 299 299 299 299 299 299 299 299 300 300 300 300 300 300 300 300 301 302 302 303 303 304 305 306 306 307 307 307 306 306 304 303 301 300 298 297 296 295 295 294 294 294 293 293 293 292 292 291 291 290 290 290 289 288 288 288 287 287 287 287 286 286 285 284 282
300 299 299 298 298 298 299 299 300 300 300 300 300 300 300 300 300 300 300 300 300 300 300 300 300 301 301 301 301 301 301 301 301 301 301 301 301 302 303 303 304 305 305 306 307 308 308 308 307 306 305 304 302 300 299 298 297 296 295 295 294 294 294 293 293 292 292 291 291 290 290 289 289 288 288 288 288 287 287 287 286 286 285 284 282 281
299 299 298 298 298 299 299 300 300 300 301 301 301 301 300 300 300 301 301 301 301 302 302 302 302 302 302 303 302 302 302 302 302 302 302 303 303 303 304 305 305 306 307 308 309 309 309 308 307 306 304 303 301 300 298 297 296 296 295 295 294 294 294 293 293 292 292 291 290 290 289 289 289 288 288 288 288 287 287 287 286 285 284 282 281 280
299 299 298 298 299 299 299 300 300 301 301 301 301 301 301 301 301 302 302 302 302 303 303 303 303 303 304 304 304 304 304 304 304 304 304 304 304 304 305 306 307 308 309 309 310 310 309 308 307 305 303 302 300 299 298 297 296 296 295 295 294 294 294 293 292 292 291 290 290 289 289 289 288 288 288 288 288 287 287 286 285 284 283 282 281 280
298 298 298 298 299 299 300 300 301 301 302 302 302 302 302 302 302 302 303 303 303 304 304 304 305 305 305 306 306 305 305 306 306 305 305 305 305 306 307 308 309 309 310 310 310 310 309 307 306 304 303 301 300 299 298 297 296 296 295 295 294 294 293 293 292 291 290 290 289 289 289 289 288 288 288 288 287 287 286 285 284 283 282 281 281 280
298 298 298 298 299 299 300 300 301 302 302 303 303 303 303 303 303 304 304 304 304 305 305 305 306 306 306 307 307 307 307 307 307 307 307 307 307 307 308 309 310 311 311 311 310 309 308 307 305 304 302 301 300 299 298 297 296 296 295 295 294 293 293 292 291 290 290 289 289 289 289 289 289 288 288 287 287 286 285 284 284 283 282 282 281 280
298 298 298 298 299 300 300 301 302 302 303 303 303 304 304 304 304 305 305 305 305 306 306 306 306 306 307 307 308 308 308 309 309 308 308 309 309 309 310 310 311 311 311 311 310 309 307 306 304 303 302 301 299 298 298 297 296 295 295 294 294 293 292 291 291 290 290 289 289 289 289 289 289 288 287 287 286 286 285 284 284 283 283 282 281 281
299 298 299 299 300 300 301 302 302 303 303 304 304 304 304 304 305 305 305 305 306 306 306 306 307 307 307 308 308 309 309 310 310 310 310 310 310 310 311 311 312 312 311 311 310 308 307 305 304 303 301 300 299 298 297 296 296 295 294 294 293 292 291 291 290 290 290 290 290 289 289 289 288 288 287 287 286 286 285 284 284 283 283 282 282 281
299 299 299 300 300 301 302 302 303 303 304 304 304 304 304 305 305 305 305 306 306 306 306 307 307 308 308 308 309 310 310 310 311 311 311 311 311 311 312 312 312 312 311 310 309 308 306 305 304 302 301 300 299 298 297 296 295 294 293 293 292 291 291 291 290 290 290 290 290 289 289 288 288 288 287 287 286 286 285 285 284 284 283 283 282 282
299 299 299 300 300 301 301 302 303 303 304 304 304 304 305 305 305 305 305 306 306 307 307 307 308 308 308 309 310 310 311 311 311 311 311 311 312 312 312 312 312 311 311 310 308 307 306 304 303 302 301 300 298 297 296 295 294 293 292 292 291 291 291 291 291 290 290 290 289 289 289 288 288 288 288 287 287 286 286 285 285 284 284 283 283 282
298 299 299 299 300 301 301 302 303 304 304 304 304 305 305 305 305 306 306 306 307 307 307 308 308 309 309 309 310 311 311 311 311 311 311 312 312 313 313 312 312 311 310 309 308 307 305 304 303 302 300 299 297 296 294 293 293 292 292 291 291 291 291 291 291 290 290 290 290 290 289 289 289 289 288 288 288 287 287 286 286 285 284 284 283 283
298 299 299 299 300 301 302 302 303 304 304 304 305 305 305 305 306 306 306 307 307 307 308 308 309 309 309 310 310 311 311 311 311 311 312 312 312 313 313 312 311 310 309 308 307 306 305 304 303 301 300 298 296 294 293 292 292 292 292 292 292 291 291 291 291 291 291 291 291 291 291 291 290 290 290 289 289 288 288 287 287 286 285 285 284 283
298 299 299 300 300 301 302 302 303 304 304 304 304 305 305 306 306 306 306 307 307 308 308 308 309 309 310 310 310 311 311 311 311 311 312 312 313 313 312 312 310 309 308 307 306 305 304 303 302 301 299 297 295 293 292 292 292 292 292 292 292 292 292 292 293 293 293 293 293 293 293 293 292 292 291 291 290 289 289 288 288 287 286 285 285 284
298 299 299 300 300 301 301 302 303 303 304 304 304 305 305 306 306 306 307 307 307 308 308 308 309 309 310 310 310 311 311 311 311 311 312 312 312 312 312 311 309 308 307 306 305 305 304 303 301 299 297 295 294 292 292 292 292 292 293 293 293 294 294 295 295 295 296 296 295 295 295 294 293 293 292 292 291 290 289 289 288 287 287 286 286 285
298 299 299 299 300 301 301 302 302 303 303 304 304 304 305 305 306 306 306 307 307 307 308 308 309 309 310 310 311 311 312 312 312 311 312 312 312 312 311 310 309 307 306 305 304 304 303 302 300 297 296 294 293 292 292 292 293 293 294 294 295 296 297 297 298 298 298 298 297 297 296 296 295 294 294 293 292 291 290 290 289 288 287 287 286 286
298 298 299 299 300 300 301 302 302 303 303 303 304 304 305 305 305 306 306 306 307 307 308 308 309 309 310 310 311 312 312 312 312 312 312 312 312 311 310 309 308 306 305 304 304 303 302 301 299 296 294 293 292 292 292 293 294 295 296 297 298 299 299 300 300 300 300 300 299 299 299 298 297 297 296 295 294 293 292 291 290 289 288 288 287 286
297 298 298 299 299 300 301 301 302 302 303 303 304 304 304 305 305 305 305 306 306 307 308 308 309 309 310 310 311 311 312 312 312 312 312 312 311 310 309 308 306 305 304 304 303 302 301 300 298 296 293 292 292 293 294 296 297 298 299 300 301 301 302 302 302 303 303 303 303 302 302 301 300 299 299 298 297 296 295 294 293 292 291 290 289 288
297 298 298 298 299 300 300 301 301 302 302 303 303 303 304 304 304 304 305 305 306 307 308 308 309 310 310 311 311 312 312 312 312 312 312 311 310 309 308 307 305 304 303 302 301 300 300 298 297 295 293 292 293 295 297 299 300 302 303 303 303 304 304 305 306 306 306 306 306 305 304 303 303 302 301 300 299 298 297 297 296 295 294 293 292 291
297 297 298 298 299 299 300 301 301 302 302 302 302 303 303 303 304 304 305 305 306 307 308 308 309 310 310 311 312 312 312 312 312 312 311 310 309 308 307 306 304 303 302 301 299 298 297 296 296 295 293 293 295 297 300 302 303 304 305 305 306 307 308 308 309 309 309 308 308 307 306 305 304 303 302 301 300 300 299 298 297 297 296 295 294 293
297 297 298 298 299 299 300 300 301 301 301 301 302 302 302 303 303 304 305 306 306 307 308 308 309 310 311 311 312 312 312 312 312 311 310 309 308 307 306 305 303 302 301 299 297 296 295 294 294 294 294 295 297 300 302 304 305 306 307 308 309 310 311 312 312 311 311 310 309 308 307 307 306 305 305 304 303 302 301 300 299 298 298 297 296 295
297 297 297 298 298 299 299 300 300 300 301 301 301 301 302 303 303 304 305 306 307 307 308 309 310 310 311 312 312 312 312 312 311 311 309 308 307 305 304 303 302 300 299 297 296 294 294 293 293 293 295 297 300 302 303 304 305 307 308 310 311 312 313 314 313 313 312 312 312 312 312 312 312 312 311 310 309 308 307 306 304 303 301 300 299 297
297 297 297 298 298 298 299 299 300 300 300 301 301 301 302 303 304 305 306 306 307 308 308 309 310 311 312 312 313 313 312 312 311 310 308 306 305 304 303 302 300 299 296 295 294 293 293 292 293 294 296 299 302 303 303 304 305 307 310 312 313 314 315 315 315 315 315 316 317 318 319 319 320 319 318 318 316 315 314 312 311 309 307 305 303 301
296 297 297 297 298 298 299 299 299 300 300 300 301 302 303 303 304 305 306 307 307 308 309 310 311 312 312 313 313 312 312 311 309 308 306 305 303 302 301 300 298 296 294 293 293 293 293 293 293 295 297 300 302 303 303 304 306 308 310 312 314 315 316 316 317 318 319 320 322 324 325 325 326 325 324 323 322 320 319 317 316 314 312 309 307 305
296 296 297 297 298 298 298 299 299 299 300 301 301 302 303 304 305 305 306 307 308 309 309 310 311 312 312 313 312 312 311 309 308 306 304 303 301 300 299 297 295 293 292 291 292 292 293 293 294 295 297 299 301 302 303 304 306 308 310 313 314 316 317 318 319 320 322 324 326 327 329 329 329 329 328 327 325 324 322 321 319 317 315 312 310 307
296 296 297 297 298 298 298 298 299 299 300 301 302 303 304 305 305 306 307 308 309 309 310 311 312 312 313 312 312 311 309 307 306 304 302 300 299 297 296 294 292 290 290 290 291 292 293 293 294 295 297 298 299 301 303 306 307 309 311 313 314 316 317 318 320 322 324 326 328 329 330 331 331 330 330 329 328 326 325 323 322 320 318 315 313 311
296 296 297 297 297 298 298 298 299 300 301 302 303 304 305 305 306 307 308 309 310 310 311 311 312 312 312 312 311 309 307 305 303 301 300 298 296 294 292 290 289 288 289 290 291 292 293 293 294 295 296 297 298 300 303 306 308 310 311 313 314 315 316 318 321 323 325 327 329 330 331 332 332 331 331 330 329 328 327 326 324 323 321 319 317 315
296 296 296 297 297 297 298 299 300 301 302 303 304 305 305 306 307 308 309 310 310 311 311 312 312 312 311 310 309 307 305 303 301 298 296 294 292 290 289 287 287 287 288 290 292 292 292 292 293 293 295 296 297 300 303 307 309 310 311 312 313 314 316 318 321 323 326 328 329 330 331 332 332 332 331 331 330 329 328 327 326 325 324 322 320 318
295 296 296 296 297 297 298 300 301 302 303 304 305 305 306 307 308 309 310 310 311 311 311 311 311 311 310 309 307 305 302 300 297 295 293 290 288 287 286 285 286 287 288 290 291 291 291 291 291 292 293 295 297 300 303 306 309 310 311 312 313 315 317 319 322 324 326 328 329 330 331 331 331 331 331 331 330 330 329 328 328 327 325 324 322 320
295 295 295 296 297 298 299 301 302 303 304 305 305 306 307 308 309 309 310 311 311 311 311 311 311 310 309 307 305 302 300 297 294 291 288 286 285 284 283 283 285 287 288 289 289 289 289 290 290 291 292 294 297 301 304 307 309 310 311 312 313 315 317 320 322 325 326 328 328 329 329 329 330 330 331 331 331 330 330 329 329 328 326 325 323 321
294 295 295 296 298 299 300 301 302 304 304 305 306 307 308 309 309 310 310 311 311 311 310 310 309 308 306 305 302 300 296 293 289 286 284 282 282 281 281 283 285 286 288 288 288 287 287 288 289 290 291 294 298 301 305 307 309 310 311 312 314 316 318 321 323 325 326 327 327 327 328 328 329 330 331 331 331 331 331 330 329 328 326 324 322 321
294 295 296 297 299 300 301 302 303 304 305 306 307 308 308 309 310 310 310 310 310 310 310 309 308 306 304 302 299 296 293 288 284 282 281 280 280 280 281 283 284 286 286 286 286 286 286 287 288 289 291 294 298 302 305 307 309 310 311 313 314 317 319 321 323 324 325 325 325 326 326 327 328 329 331 332 332 332 332 331 330 328 326 324 322 320
295 296 297 298 300 301 302 303 304 305 305 306 307 308 309 310 310 310 310 310 309 309 308 307 306 304 301 299 296 292 288 283 279 278 278 278 278 279 281 283 284 284 284 284 284 285 286 288 289 290 292 295 299 302 305 307 309 311 312 313 315 317 319 321 322 323 323 324 324 325 326 327 328 330 331 332 333 333 332 331 330 328 326 324 321 320
296 297 298 299 300 301 302 303 304 305 306 307 308 309 309 310 310 310 310 309 308 307 306 305 303 301 298 296 292 288 282 278 275 274 275 275 277 278 280 282 282 282 282 282 283 285 287 289 290 292 294 297 300 303 305 308 309 311 312 314 316 318 319 321 322 322 322 323 324 325 326 327 329 330 332 333 333 333 333 331 330 328 326 323 321 319
297 298 299 300 301 302 303 303 304 305 306 307 308 309 310 310 310 309 309 308 307 306 304 302 300 298 295 292 287 282 277 274 273 272 272 274 275 278 279 280 280 279 280 281 283 285 288 290 292 294 296 299 302 304 306 308 310 311 313 315 316 318 319 321 321 322 322 323 324 325 327 328 330 331 332 333 334 334 333 332 330 328 326 323 321 319
298 299 299 300 301 302 303 304 305 306 307 308 309 309 310 309 309 308 307 306 305 303 301 299 297 294 291 286 281 276 273 271 271 271 271 273 275 277 277 277 277 277 278 280 282 285 288 291 295 297 299 301 303 305 307 309 310 312 314 316 317 319 320 321 321 322 323 324 325 326 328 329 331 332 333 333 334 334 333 332 331 329 326 324 322 319
Height
5695 5694 5693 5692 5692 5690 5689 5688 5687 5686 5685 5684 5683 5682 5681 5680 5679 5677 5677 5675 5674 5673 5672 5672 5670 5669 5668 5667 5666 5665 5664 5663 5662 5661 5659 5658 5657 5655 5654 5652 5650 5648 5646 5644 5642 5640 5638 5636 5634 5632 5631 5629 5627 5625 5624 5622 5620 5618 5617 5615 5614 5612 5611 5609 5607 5606 5604 5603 5602 5600 5599 5597 5596 5595 5593 5592 5590 5589 5587 5586 5584 5583 5581 5580 5578 5576
5691 5690 5689 5688 5687 5687 5685 5684 5683 5682 5681 5680 5679 5678 5677 5676 5675 5674 5672 5672 5670 5669 5668 5667 5666 5665 5664 5663 5662 5661 5660 5659 5658 5657 5656 5654 5653 5652 5650 5648 5646 5644 5642 5639 5637 5635 5633 5631 5629 5627 5625 5623 5621 5619 5617 5616 5614 5612 5610 5609 5607 5605 5603 5602 5600 5598 5597 5595 5593 5592 5590 5589 5588 5587 5585 5583 5582 5580 5579 5577 5575 5574 5572 5571 5569 5567
5687 5686 5685 5684 5683 5682 5681 5680 5679 5678 5677 5676 5675 5674 5673 5672 5671 5670 5669 5667 5666 5665 5664 5663 5662 5661 5660 5659 5658 5657 5656 5655 5654 5653 5652 5650 5649 5647 5646 5644 5642 5640 5638 5635 5633 5630 5628 5626 5624 5622 5620 5617 5615 5613 5611 5609 5607 5605 5603 5602 5600 5598 5596 5594 5592 5590 5588 5587 5585 5583 5582 5580 5579 5577 5576 5574 5573 5572 5570 5568 5566 5565 5563 5561 5559 5558
5683 5682 5681 5680 5679 5678 5677 5676 5674 5673 5673 5672 5671 5670 5669 5668 5667 5666 5665 5663 5662 5661 5660 5659 5658 5657 5656 5655 5654 5653 5652 5651 5650 5649 5647 5646 5645 5643 5642 5640 5638 5636 5634 5631 5628 5626 5623 5621 5618 5616 5614 5611 5609 5607 5605 5602 5600 5598 5596 5594 5592 5590 5588 5586 5584 5582 5580 5578 5577 5575 5573 5572 5570 5568 5567 5566 5564 5562 5561 5558 5557 5555 5554 5552 5550 5548
5679 5677 5676 5676 5675 5673 5672 5671 5670 5669 5668 5667 5666 5665 5664 5663 5662 5661 5660 5659 5658 5657 5656 5655 5654 5653 5652 5651 5650 5649 5648 5647 5646 5645 5643 5642 5641 5639 5637 5636 5634 5632 5629 5627 5624 5621 5618 5616 5613 5610 5607 5605 5602 5600 5597 5595 5593 5591 5588 5587 5584 5582 5580 5578 5576 5574 5572 5570 5568 5566 5564 5563 5561 5559 5558 5557 5555 5553 5552 5550 5548 5546 5545 5543 5541 5539
5674 5673 5672 5671 5670 5669 5667 5666 5665 5664 5663 5662 5662 5661 5660 5658 5657 5657 5656 5655 5654 5652 5652 5650 5649 5648 5647 5647 5646 5645 5644 5642 5641 5640 5639 5637 5636 5634 5632 5631 5628 5626 5624 5621 5618 5615 5612 5609 5607 5604 5601 5598 5596 5593 5590 5587 5585 5583 5581 5578 5576 5574 5572 5569 5567 5565 5563 5561 5559 5557 5556 5554 5552 5551 5549 5547 5546 5545 5543 5541 5539 5537 5536 5534 5532 5531
5670 5668 5667 5666 5665 5664 5663 5662 5660 5659 5658 5658 5657 5656 5655 5654 5653 5652 5651 5650 5649 5648 5647 5646 5645 5644 5643 5642 5641 5640 5639 5637 5636 5635 5633 5632 5630 5629 5627 5625 5622 5620 5618 5615 5612 5609 5606 5603 5600 5597 5594 5592 5588 5586 5583 5580 5577 5575 5572 5570 5568 5565 5563 5561 5558 5556 5554 5552 5550 5548 5547 5545 5543 5542 5540 5539 5537 5536 5534 5532 5531 5529 5527 5526 5524 5522
5665 5664 5663 5662 5660 5659 5658 5657 5656 5654 5653 5653 5652 5651 5650 5649 5648 5647 5647 5645 5644 5643 5642 5641 5640 5639 5638 5637 5636 5634 5633 5632 5631 5629 5627 5626 5624 5622 5621 5618 5616 5614 5611 5608 5606 5603 5600 5597 5593 5591 5588 5585 5582 5578 5576 5572 5570 5567 5564 5562 5559 5557 5554 5552 5550 5547 5545 5543 5542 5540 5538 5536 5535 5533 5532 5530 5528 5527 5526 5524 5523 5521 5519 5518 5516 5514
5660 5659 5658 5657 5656 5654 5653 5652 5651 5650 5649 5648 5647 5646 5645 5644 5644 5643 5642 5641 5639 5638 5637 5636 5635 5634 5633 5632 5630 5629 5627 5626 5625 5623 5621 5620 5618 5616 5614 5612 5610 5607 5605 5602 5599 5596 5593 5590 5587 5584 5581 5578 5575 5572 5568 5565 5562 5559 5557 5554 5551 5549 5546 5544 5542 5539 5537 5535 5533 5531 5529 5528 5526 5525 5523 5522 5520 5519 5517 5516 5515 5513 5512 5510 5508 5507
5656 5654 5653 5652 5651 5650 5648 5647 5646 5645 5644 5643 5642 5641 5640 5639 5638 5638 5638 5637 5635 5633 5632 5631 5630 5629 5628 5627 5625 5624 5622 5620 5619 5617 5616 5613 5612 5610 5608 5606 5603 5601 5598 5596 5593 5590 5587 5583 5580 5577 5574 5571 5568 5565 5561 5558 5555 5552 5549 5546 5543 5541 5538 5536 5533 5531 5529 5527 5525 5523 5521 5520 5518 5517 5515 5513 5512 5511 5509 5508 5507 5505 5504 5502 5501 5499
5651 5650 5648 5647 5646 5645 5644 5642 5641 5640 5639 5638 5637 5636 5635 5634 5633 5632 5632 5631 5630 5629 5627 5626 5625 5623 5622 5620 5619 5618 5617 5615 5613 5612 5610 5608 5606 5604 5602 5599 5597 5595 5592 5590 5587 5584 5580 5577 5574 5571 5568 5564 5561 5557 5554 5551 5548 5545 5542 5538 5536 5533 5530 5528 5525 5523 5521 5519 5517 5515 5513 5512 5510 5508 5507 5505 5504 5502 5501 5500 5498 5497 5496 5494 5493 5492
5646 5645 5644 5642 5641 5640 5639 5637 5637 5635 5634 5633 5632 5631 5630 5629 5628 5627 5626 5625 5624 5624 5622 5621 5620 5618 5617 5614 5613 5612 5611 5610 5608 5606 5604 5602 5600 5598 5596 5593 5592 5589 5587 5584 5581 5577 5574 5571 5567 5564 5561 5558 5554 5551 5547 5544 5541 5537 5534 5531 5528 5525 5523 5520 5518 5516 5513 5511 5510 5508 5506 5504 5502 5501 5499 5497 5496 5495 5493 5492 5491 5489 5488 5487 5485 5484
5642 5640 5639 5638 5637 5635 5634 5633 5632 5631 5630 5628 5627 5626 5625 5624 5623 5622 5621 5619 5619 5618 5617 5616 5615 5613 5612 5609 5607 5605 5604 5603 5602 5601 5599 5597 5594 5592 5590 5587 5585 5583 5581 5578 5575 5571 5568 5565 5562 5558 5554 5551 5547 5543 5540 5536 5533 5530 5527 5523 5521 5518 5515 5513 5511 5508 5506 5504 5502 5501 5499 5497 5495 5494 5492 5490 5489 5487 5486 5484 5483 5482 5481 5479 5478 5477
5637 5636 5635 5633 5632 5631 5629 5628 5627 5626 5625 5623 5622 5621 5620 5619 5618 5617 5616 5615 5614 5613 5612 5611 5609 5608 5606 5604 5602 5599 5598 5597 5596 5595 5594 5592 5589 5586 5583 5581 5579 5577 5574 5572 5568 5564 5561 5558 5555 5552 5548 5544 5541 5537 5532 5529 5526 5522 5519 5516 5513 5511 5508 5506 5504 5502 5500 5498 5496 5494 5492 5490 5488 5487 5485 5483 5482 5480 5479 5477 5476 5475 5474 5472 5471 5470
5632 5631 5630 5629 5627 5626 5625 5624 5622 5621 5620 5619 5618 5617 5615 5614 5613 5612 5611 5609 5608 5607 5607 5606 5605 5603 5602 5599 5596 5593 5592 5590 5590 5589 5588 5586 5584 5581 5577 5574 5572 5570 5568 5566 5562 5558 5554 5551 5548 5545 5541 5537 5533 5529 5525 5522 5518 5515 5512 5509 5506 5504 5502 5499 5497 5495 5493 5491 5489 5487 5485 5483 5482 5480 5478 5476 5475 5473 5472 5471 5469 5468 5467 5466 5465 5464
5628 5627 5626 5625 5623 5622 5621 5620 5618 5617 5615 5614 5613 5612 5610 5609 5608 5607 5606 5604 5603 5602 5601 5600 5599 5598 5597 5595 5592 5588 5585 5583 5582 5582 5582 5581 5578 5575 5571 5568 5565 5563 5562 5559 5556 5552 5547 5544 5541 5538 5534 5530 5526 5522 5518 5514 5511 5507 5505 5502 5499 5497 5495 5492 5490 5488 5486 5484 5482 5480 5478 5477 5475 5473 5471 5470 5468 5467 5465 5464 5463 5462 5461 5460 5459 5458
5624 5623 5622 5621 5619 5618 5617 5616 5614 5612 5611 5609 5608 5607 5606 5604 5602 5601 5600 5599 5598 5597 5595 5594 5593 5591 5590 5589 5587 5584 5581 5577 5575 5575 5575 5575 5573 5569 5565 5562 5559 5557 5555 5553 5550 5545 5541 5538 5534 5531 5527 5523 5518 5514 5511 5507 5503 5500 5497 5495 5492 5490 5488 5486 5484 5482 5479 5477 5475 5473 5472 5470 5468 5467 5465 5463 5462 5460 5459 5458 5457 5456 5455 5454 5453 5452
5620 5619 5617 5616 5615 5614 5613 5611 5609 5607 5606 5605 5603 5602 5601 5599 5598 5596 5595 5594 5592 5591 5589 5588 5587 5585 5584 5582 5580 5577 5574 5572 5569 5567 5568 5568 5567 5563 5559 5555 5552 5550 5548 5546 5543 5538 5534 5531 5527 5524 5519 5515 5511 5507 5503 5500 5496 5493 5491 5488 5486 5484 5482 5479 5477 5475 5473 5471 5469 5467 5465 5463 5462 5460 5458 5457 5456 5454 5453 5452 5451 5450 5450 5449 5448 5447
5616 5615 5613 5612 5611 5610 5609 5607 5605 5603 5601 5600 5599 5597 5596 5594 5593 5592 5590 5588 5587 5585 5584 5582 5580 5579 5578 5576 5573 5570 5567 5565 5563 5561 5561 5561 5561 5557 5553 5548 5546 5544 5542 5539 5536 5532 5527 5524 5520 5517 5512 5508 5504 5500 5496 5492 5489 5486 5484 5481 5479 5477 5475 5473 5471 5468 5466 5464 5462 5461 5459 5457 5456 5454 5453 5451 5450 5449 5447 5447 5446 5445 5444 5443 5443 5442
5612 5611 5609 5608 5606 5605 5604 5602 5601 5598 5597 5595 5593 5592 5591 5589 5588 5587 5585 5583 5582 5580 5578 5577 5575 5573 5572 5570 5567 5564 5560 5558 5556 5554 5553 5554 5554 5552 5547 5542 5539 5537 5535 5533 5529 5525 5521 5517 5513 5509 5505 5501 5497 5492 5489 5485 5482 5479 5477 5475 5473 5471 5468 5466 5464 5462 5460 5458 5457 5455 5453 5452 5450 5449 5447 5446 5445 5443 5442 5442 5441 5440 5439 5439 5438 5437
5608 5606 5605 5603 5602 5601 5599 5597 5596 5594 5592 5590 5588 5587 5586 5584 5583 5581 5580 5578 5577 5575 5573 5571 5570 5567 5566 5563 5560 5557 5553 5551 5549 5547 5545 5546 5547 5546 5541 5536 5532 5530 5528 5526 5522 5518 5514 5510 5506 5502 5498 5494 5490 5486 5482 5478 5476 5473 5471 5468 5467 5464 5462 5460 5458 5456 5454 5452 5451 5449 5448 5447 5445 5444 5442 5441 5440 5439 5438 5437 5436 5436 5435 5434 5433 5432
5604 5602 5600 5599 5597 5596 5594 5593 5591 5589 5587 5585 5583 5582 5580 5579 5577 5576 5574 5573 5571 5569 5567 5566 5564 5562 5560 5557 5554 5550 5547 5544 5542 5539 5537 5537 5538 5537 5535 5530 5526 5523 5521 5518 5515 5511 5507 5503 5500 5496 5491 5487 5483 5479 5475 5472 5469 5467 5465 5462 5461 5458 5457 5455 5453 5451 5449 5447 5446 5444 5443 5442 5440 5439 5438 5437 5436 5435 5434 5433 5432 5431 5430 5429 5429 5428
5599 5598 5596 5594 5593 5591 5590 5588 5586 5584 5582 5580 5578 5577 5575 5573 5572 5571 5569 5567 5565 5563 5562 5560 5559 5557 5555 5552 5549 5545 5541 5537 5534 5531 5529 5528 5529 5529 5527 5523 5519 5516 5514 5512 5508 5504 5500 5497 5493 5489 5485 5481 5477 5472 5469 5466 5463 5461 5459 5457 5455 5453 5451 5449 5447 5446 5444 5443 5441 5440 5438 5437 5436 5435 5434 5432 5432 5430 5429 5428 5427 5427 5426 5425 5424 5423
5594 5593 5591 5590 5588 5586 5585 5583 5581 5579 5577 5575 5573 5572 5570 5568 5567 5565 5563 5561 5559 5557 5556 5554 5553 5552 5550 5547 5544 5541 5536 5532 5527 5524 5521 5520 5520 5521 5519 5516 5512 5509 5507 5505 5502 5498 5494 5490 5487 5483 5479 5474 5470 5466 5463 5460 5458 5456 5454 5452 5450 5448 5447 5445 5443 5442 5440 5438 5437 5436 5434 5433 5432 5431 5430 5429 5427 5426 5425 5424 5423 5422 5421 5420 5419 5419
5590 5588 5587 5585 5584 5582 5580 5578 5577 5575 5573 5571 5569 5567 5565 5563 5562 5560 5558 5556 5554 5552 5550 5549 5547 5546 5544 5542 5539 5535 5531 5526 5522 5518 5515 5513 5512 5512 5512 5509 5505 5502 5499 5497 5494 5491 5487 5484 5480 5477 5472 5468 5464 5461 5457 5455 5453 5451 5449 5447 5446 5444 5442 5441 5439 5437 5436 5435 5433 5432 5431 5430 5428 5427 5426 5425 5423 5422 5421 5420 5418 5417 5417 5416 5415 5414
5586 5584 5583 5581 5580 5578 5576 5574 5572 5570 5568 5566 5564 5562 5560 5558 5556 5554 5552 5551 5549 5547 5545 5543 5541 5539 5538 5536 5534 5531 5526 5520 5515 5511 5509 5507 5505 5505 5504 5501 5498 5495 5492 5490 5487 5485 5481 5477 5474 5471 5467 5463 5459 5456 5453 5450 5448 5447 5445 5443 5442 5440 5438 5437 5435 5434 5432 5431 5430 5428 5427 5426 5425 5423 5422 5421 5419 5418 5416 5415 5414 5413 5412 5411 5410 5409
5582 5580 5578 5577 5575 5573 5571 5569 5567 5565 5563 5561 5558 5556 5555 5553 5551 5549 5547 5545 5543 5542 5539 5536 5534 5533 5531 5530 5528 5526 5521 5516 5510 5505 5502 5501 5499 5498 5496 5493 5490 5487 5485 5483 5481 5478 5475 5471 5468 5465 5462 5458 5454 5451 5448 5446 5445 5443 5442 5440 5438 5437 5435 5433 5432 5431 5429 5428 5427 5425 5424 5422 5421 5419 5418 5416 5415 5413 5412 5411 5409 5408 5407 5407 5406 5405
5577 5575 5574 5572 5570 5568 5567 5564 5562 5560 5558 5556 5553 5551 5549 5548 5546 5543 5540 5538 5537 5535 5532 5530 5528 5527 5525 5523 5522 5520 5517 5511 5504 5499 5495 5494 5493 5492 5490 5487 5483 5480 5477 5475 5474 5472 5470 5466 5462 5459 5456 5453 5450 5447 5444 5443 5441 5440 5438 5437 5435 5433 5432 5430 5429 5427 5426 5425 5423 5422 5420 5418 5417 5415 5413 5412 5410 5409 5407 5406 5405 5404 5403 5402 5401 5400
5572 5571 5569 5567 5566 5564 5562 5560 5557 5556 5554 5551 5549 5546 5544 5542 5540 5538 5535 5532 5531 5529 5526 5524 5522 5520 5518 5517 5515 5514 5512 5507 5500 5493 5490 5489 5487 5485 5483 5480 5476 5472 5470 5468 5467 5466 5465 5461 5457 5454 5451 5448 5446 5443 5441 5439 5438 5437 5435 5434 5432 5430 5429 5427 5426 5424 5423 5421 5419 5418 5416 5414 5413 5411 5409 5407 5406 5404 5403 5402 5400 5399 5398 5397 5396 5395
5567 5566 5565 5563 5561 5559 5557 5555 5553 5551 5549 5547 5544 5542 5539 5537 5535 5532 5530 5527 5525 5523 5520 5518 5516 5514 5512 5510 5508 5507 5505 5501 5494 5489 5485 5483 5481 5479 5477 5474 5469 5466 5463 5461 5460 5459 5460 5458 5454 5450 5447 5444 5442 5440 5438 5436 5435 5434 5432 5431 5429 5427 5426 5424 5423 5421 5419 5418 5416 5414 5412 5410 5409 5407 5405 5403 5402 5400 5398 5397 5396 5394 5393 5392 5391 5390
5563 5562 5560 5558 5556 5555 5553 5551 5549 5547 5544 5542 5540 5537 5534 5532 5529 5527 5524 5522 5520 5517 5515 5512 5510 5508 5506 5503 5501 5500 5497 5494 5488 5483 5480 5478 5476 5473 5471 5467 5463 5459 5457 5455 5453 5452 5452 5453 5451 5448 5444 5441 5438 5437 5435 5433 5432 5431 5430 5428 5426 5424 5423 5421 5420 5418 5416 5414 5412 5410 5408 5407 5405 5403 5401 5399 5397 5396 5394 5392 5391 5390 5388 5387 5387 5386
5558 5557 5555 5553 5552 5550 5548 5546 5544 5542 5540 5537 5535 5532 5530 5527 5524 5522 5519 5517 5514 5512 5510 5507 5504 5502 5499 5497 5495 5493 5491 5487 5482 5477 5474 5472 5470 5467 5465 5462 5458 5454 5451 5449 5448 5447 5446 5446 5446 5445 5442 5439 5436 5434 5432 5431 5429 5428 5427 5425 5423 5422 5420 5418 5417 5415 5413 5411 5409 5407 5405 5403 5401 5399 5397 5395 5393 5392 5390 5388 5387 5385 5384 5383 5382 5381
5554 5552 5550 5548 5547 5545 5543 5541 5539 5537 5535 5532 5530 5527 5525 5522 5520 5517 5515 5512 5509 5507 5505 5502 5499 5496 5493 5491 5489 5487 5485 5481 5476 5471 5468 5466 5464 5462 5459 5456 5453 5450 5447 5445 5443 5442 5441 5441 5441 5440 5439 5437 5434 5432 5429 5428 5426 5425 5423 5422 5420 5418 5417 5416 5414 5412 5410 5408 5406 5404 5402 5400 5397 5395 5393 5391 5389 5387 5386 5384 5382 5380 5379 5377 5377 5376
5549 5547 5545 5543 5542 5540 5538 5536 5534 5532 5530 5527 5525 5523 5520 5518 5515 5513 5510 5507 5504 5502 5499 5497 5494 5491 5488 5485 5483 5481 5478 5475 5470 5466 5462 5460 5457 5455 5453 5451 5448 5445 5443 5442 5440 5438 5437 5437 5436 5436 5435 5434 5432 5429 5427 5425 5423 5422 5420 5419 5417 5416 5414 5412 5411 5409 5407 5405 5403 5401 5399 5397 5395 5392 5390 5388 5386 5384 5382 5380 5378 5376 5374 5372 5371 5370
5544 5542 5540 5539 5537 5535 5533 5531 5529 5527 5525 5522 5520 5518 5516 5513 5511 5508 5505 5502 5499 5497 5493 5491 5488 5485 5483 5480 5477 5475 5472 5469 5465 5460 5457 5454 5452 5449 5447 5446 5443 5441 5439 5438 5437 5436 5434 5433 5433 5432 5432 5431 5429 5427 5425 5422 5421 5419 5417 5416 5414 5412 5411 5410 5408 5406 5404 5402 5400 5398 5396 5394 5392 5390 5387 5385 5383 5381 5379 5377 5374 5372 5370 5368 5367 5365
5539 5537 5535 5534 5532 5530 5528 5526 5524 5522 5520 5517 5515 5513 5511 5508 5506 5503 5500 5497 5495 5492 5488 5485 5482 5479 5476 5473 5471 5469 5466 5463 5459 5455 5451 5448 5446 5444 5442 5441 5439 5437 5436 5434 5433 5432 5432 5431 5430 5429 5428 5427 5426 5424 5422 5420 5418 5417 5415 5413 5412 5410 5408 5407 5405 5404 5402 5400 5398 5396 5394 5392 5389 5387 5384 5382 5380 5378 5376 5373 5371 5369 5367 5365 5362 5360
5534 5532 5530 5529 5527 5525 5523 5521 5519 5517 5515 5512 5510 5508 5506 5503 5501 5498 5495 5492 5490 5487 5484 5480 5477 5474 5470 5467 5464 5462 5459 5456 5453 5449 5446 5442 5440 5439 5437 5436 5435 5434 5432 5431 5430 5429 5429 5428 5427 5427 5426 5424 5423 5422 5420 5419 5417 5415 5413 5411 5409 5407 5406 5405 5403 5401 5399 5397 5395 5393 5391 5388 5385 5383 5381 5378 5376 5374 5372 5370 5367 5365 5363 5361 5358 5356
5529 5527 5525 5523 5522 5520 5518 5516 5513 5512 5510 5507 5505 5502 5500 5498 5495 5493 5490 5487 5484 5482 5478 5475 5472 5469 5465 5462 5458 5455 5452 5450 5447 5443 5440 5437 5436 5434 5433 5432 5431 5430 5429 5428 5427 5427 5426 5425 5424 5423 5422 5422 5421 5419 5418 5417 5415 5414 5412 5409 5407 5405 5404 5402 5401 5399 5397 5394 5392 5390 5387 5384 5382 5379 5377 5374 5372 5370 5368 5366 5363 5362 5359 5357 5354 5352
5523 5522 5520 5518 5516 5514 5512 5510 5508 5506 5504 5502 5500 5497 5495 5492 5490 5487 5485 5482 5479 5476 5473 5470 5467 5464 5461 5457 5453 5450 5446 5444 5441 5438 5435 5433 5431 5430 5430 5429 5428 5427 5426 5425 5425 5424 5423 5422 5421 5421 5420 5419 5418 5417 5416 5414 5413 5412 5410 5408 5406 5404 5402 5400 5398 5396 5394 5391 5389 5386 5384 5381 5378 5375 5373 5370 5368 5366 5364 5362 5360 5358 5356 5353 5351 5348
5518 5516 5514 5512 5510 5508 5507 5505 5502 5500 5498 5496 5494 5492 5489 5487 5485 5482 5479 5477 5474 5471 5468 5465 5462 5459 5456 5452 5449 5445 5442 5438 5436 5433 5431 5429 5427 5427 5427 5426 5425 5424 5423 5422 5422 5421 5421 5419 5418 5418 5417 5417 5416 5415 5413 5412 5411 5409 5408 5406 5404 5402 5400 5397 5395 5393 5391 5388 5386 5383 5381 5378 5375 5372 5370 5367 5365 5362 5361 5358 5356 5354 5352 5349 5347 5345
5512 5510 5509 5507 5505 5503 5501 5499 5497 5495 5493 5491 5488 5486 5483 5481 5479 5477 5474 5471 5468 5465 5462 5459 5457 5454 5450 5447 5443 5440 5437 5434 5431 5429 5427 5426 5424 5424 5423 5423 5422 5422 5421 5420 5419 5419 5418 5417 5416 5415 5415 5414 5413 5412 5411 5410 5408 5407 5405 5403 5402 5400 5398 5395 5393 5390 5388 5386 5383 5381 5378 5375 5372 5370 5367 5364 5361 5359 5357 5354 5352 5350 5347 5345 5342 5340
5507 5505 5503 5501 5499 5497 5495 5493 5492 5489 5487 5485 5483 5480 5478 5476 5473 5471 5468 5466 5463 5460 5457 5454 5452 5449 5446 5442 5438 5435 5432 5429 5427 5425 5423 5422 5422 5421 5421 5420 5420 5419 5419 5418 5417 5416 5415 5414 5413 5413 5412 5412 5411 5410 5409 5407 5406 5404 5402 5401 5399 5398 5396 5393 5391 5388 5385 5383 5380 5378 5375 5372 5370 5367 5364 5361 5358 5355 5352 5350 5347 5345 5342 5340 5337 5335
5501 5499 5498 5496 5494 5492 5490 5488 5486 5484 5482 5480 5477 5474 5472 5469 5467 5465 5462 5460 5457 5454 5452 5448 5446 5444 5442 5438 5435 5431 5428 5425 5423 5422 5420 5420 5419 5419 5418 5418 5417 5417 5416 5416 5415 5414 5413 5412 5411 5410 5410 5410 5409 5408 5407 5405 5404 5402 5400 5398 5397 5395 5393 5391 5389 5386 5383 5380 5377 5375 5372 5370 5367 5364 5361 5358 5355 5352 5349 5346 5343 5341 5338 5335 5332 5330
5496 5494 5492 5491 5489 5487 5485 5483 5481 5479 5477 5474 5472 5469 5466 5463 5461 5459 5457 5454 5452 5449 5446 5443 5441 5438 5436 5433 5431 5428 5424 5422 5420 5418 5417 5417 5417 5417 5416 5416 5415 5414 5414 5413 5412 5412 5411 5410 5409 5408 5407 5407 5406 5405 5404 5403 5402 5400 5398 5396 5394 5392 5390 5388 5386 5383 5381 5378 5375 5372 5370 5368 5365 5362 5359 5356 5352 5349 5346 5343 5340 5337 5334 5331 5328 5326
5490 5488 5487 5485 5483 5482 5480 5478 5475 5473 5471 5469 5466 5463 5461 5458 5455 5453 5451 5449 5446 5443 5440 5438 5436 5433 5431 5428 5426 5424 5422 5419 5417 5416 5415 5415 5415 5414 5414 5413 5413 5412 5411 5411 5410 5409 5408 5407 5407 5406 5405 5405 5404 5403 5402 5401 5399 5398 5396 5394 5392 5389 5387 5385 5382 5380 5377 5375 5373 5371 5368 5366 5363 5360 5357 5354 5350 5346 5343 5339 5337 5333 5330 5327 5325 5322
5485 5483 5482 5480 5478 5477 5474 5472 5470 5468 5465 5463 5461 5458 5455 5452 5450 5447 5445 5443 5441 5438 5435 5432 5431 5428 5426 5424 5422 5420 5418 5416 5415 5413 5413 5412 5412 5412 5412 5411 5410 5410 5409 5408 5407 5407 5406 5405 5404 5404 5403 5403 5402 5401 5399 5398 5397 5395 5394 5392 5390 5387 5385 5382 5379 5377 5375 5372 5371 5368 5366 5364 5361 5358 5355 5352 5348 5344 5340 5337 5333 5330 5327 5324 5321 5318
5479 5477 5476 5474 5472 5471 5468 5466 5464 5462 5460 5457 5455 5452 5450 5447 5445 5442 5440 5437 5435 5433 5430 5427 5425 5423 5421 5419 5418 5416 5415 5413 5412 5412 5411 5410 5410 5410 5409 5409 5408 5407 5407 5406 5405 5404 5403 5403 5402 5402 5401 5401 5400 5398 5397 5396 5395 5393 5391 5390 5387 5385 5382 5380 5377 5375 5372 5370 5368 5366 5364 5362 5359 5357 5353 5350 5346 5342 5338 5334 5331 5327 5324 5321 5318 5315
5472 5471 5470 5468 5467 5465 5462 5460 5458 5457 5454 5452 5449 5447 5444 5442 5439 5437 5435 5432 5430 5427 5425 5423 5421 5418 5417 5415 5414 5413 5412 5411 5410 5410 5409 5409 5408 5407 5407 5406 5406 5405 5405 5404 5403 5402 5402 5400 5399 5399 5398 5398 5397 5396 5395 5394 5393 5391 5389 5387 5385 5383 5380 5378 5376 5373 5371 5368 5366 5364 5362 5359 5357 5354 5351 5348 5344 5340 5337 5332 5328 5325 5322 5318 5315 5312
5466 5465 5463 5462 5460 5459 5457 5455 5452 5451 5448 5446 5444 5441 5438 5436 5434 5432 5430 5427 5425 5422 5420 5418 5416 5414 5412 5411 5410 5409 5409 5408 5408 5407 5407 5407 5406 5406 5405 5404 5404 5403 5403 5402 5401 5401 5400 5398 5397 5396 5395 5395 5394 5394 5393 5392 5391 5389 5387 5385 5383 5381 5378 5376 5374 5372 5369 5367 5364 5362 5359 5356 5353 5351 5348 5345 5342 5338 5335 5331 5327 5323 5319 5316 5313 5309
5460 5459 5457 5456 5454 5453 5451 5449 5447 5445 5442 5440 5438 5436 5434 5431 5428 5426 5424 5422 5419 5417 5415 5413 5412 5410 5409 5408 5407 5407 5406 5406 5406 5405 5405 5405 5404 5403 5403 5402 5402 5402 5401 5401 5400 5399 5398 5397 5395 5393 5392 5392 5391 5391 5390 5390 5389 5387 5385 5383 5381 5378 5377 5374 5372 5370 5367 5365 5362 5359 5357 5354 5351 5348 5345 5342 5339 5336 5333 5329 5325 5321 5317 5314 5310 5307
5454 5453 5452 5450 5449 5447 5445 5443 5441 5439 5437 5435 5432 5431 5428 5426 5424 5421 5418 5416 5414 5412 5410 5409 5407 5407 5406 5405 5404 5404 5404 5403 5403 5403 5403 5402 5402 5401 5401 5400 5400 5400 5399 5399 5398 5397 5397 5395 5393 5392 5390 5389 5388 5388 5387 5387 5386 5385 5383 5381 5379 5377 5374 5372 5370 5368 5365 5362 5360 5357 5354 5352 5348 5345 5342 5339 5336 5333 5330 5327 5323 5320 5316 5312 5308 5305